Location: Street
(51.1247°N, 2.7429°W)
Time: 09:37:19
(UTC+00:00)

Tiros 1 - Pass Details

Date: 02 December 2020
Orbit: 630 x 663 km, 48.4° (Epoch: 21 January)

Event Time Altitude Azimuth Distance (km) Brightness Sun altitude
Rises 14:44:35 0° 228° (SW) 2,987 12.6 8.4°
Reaches altitude 10° 14:47:04 10° 220° (SW) 2,077 13.7 8.2°
Maximum altitude 14:51:27 36° 155° (SSE) 1,052 8.7 7.7°
Drops below altitude 10° 14:55:49 10° 89° (E) 2,078 9.4 7.3°
Sets 14:58:18 0° 81° (E) 2,988 10.1 7.1°
